Regional Weather Roundup
Issued by NWS Cleveland, OH

Home | Current Version | Previous Version | Graphics & Text | Print | Product List | Glossary On
Versions: 1 2 3 4 5 6 7 8 9 10 11 12 13 14 15 16 17 18 19 20 21 22 23 24 25 26 27 28 29 30 31 32 33 34 35 36 37 38 39 40 41 42 43 44 45 46 47 48 49 50
000
ASUS41 KCLE 052000
RWRCLE
OHIO REGIONAL WEATHER ROUNDUP
NATIONAL WEATHER SERVICE WILMINGTON, OH
400 PM EDT SUN JUL 05 2015

NOTE: "FAIR" INDICATES FEW OR NO CLOUDS BELOW 12,000 FEET WITH NO
SIGNIFICANT WEATHER AND/OR OBSTRUCTIONS TO VISIBILITY.

OHZ001>008-015>018-024>027-034-035-043-044-052100-
   NORTHWEST OHIO

CITY           SKY/WX    TMP DP  RH WIND       PRES   REMARKS
DEFIANCE       PTSUNNY   82  56  40 SE5       30.09F
FINDLAY        CLOUDY    81  56  42 E7        30.09S
TOLEDO EXPRESS FAIR      82  55  39 E7        30.09F
TOLEDO EXEC    PTSUNNY   80  56  43 NE8       30.11S
LIMA           PTSUNNY   79  60  52 E6        30.10S
$$

OHZ009>014-019>023-028>033-038-089-052100-
   NORTHEAST OHIO

CITY           SKY/WX    TMP DP  RH WIND       PRES   REMARKS
CLE-HOPKINS    PTSUNNY   81  59  47 N10       30.12F
CLE-LAKEFRONT  PTSUNNY   74  63  68 NE12      30.10F
CUY CO. ARPT   MOSUNNY   81  63  54 NE9       30.13S
LORAIN-ELYRIA  MOSUNNY   80  52  37 S3        30.11F
ASHTABULA      MOSUNNY   78  61  55 N6        30.14S
AKRON-CANTON   PTSUNNY   79  56  45 E5        30.12F
WOOSTER        NOT AVBL
MANSFIELD      PTSUNNY   77  58  51 SE5       30.12F
YOUNGSTOWN     PTSUNNY   79  53  40 SE8       30.13S
$$

OHZ042-051>053-060>062-070>072-077>081-052100-
  SOUTHWEST OHIO

CITY           SKY/WX    TMP DP  RH WIND       PRES   REMARKS
CINC-COVINGTON CLOUDY    77  59  53 CALM      30.10R
CINC-LUNKEN    CLOUDY    77  60  55 E3        30.09S
HAMILTON       CLOUDY    78  60  53 E5        30.10S
DAYTON         NOT AVBL
WRIGHT-PAT AFB CLOUDY    80  56  45 VRB6      30.09S
DAYTON GENERAL CLOUDY    77  60  55 CALM      30.09S
WILMINGTON     CLOUDY    75  60  59 E3        30.09S
$$

OHZ036-037-039>041-045>050-054>059-063>069-073>076-082>088-052100-
  CENTRAL AND SOUTHEAST OHIO

CITY           SKY/WX    TMP DP  RH WIND       PRES   REMARKS
COLUMBUS       CLOUDY    78  62  57 E6        30.08F
OSU AIRPORT    CLOUDY    78  60  53 E8        30.09F
BOLTON FIELD   SUNNY     75  63  64 E3        30.09F
RICKENBACK AFB NOT AVBL
NEWARK         CLOUDY    79  62  56 VRB5      30.08F
MARION         PTSUNNY   79  59  50 N7        30.11S
LANCASTER      CLOUDY    77  65  66 NE5       30.08F
ZANESVILLE     CLOUDY    79  60  52 SE3       30.08F
NEW PHILLY     PTSUNNY   78  62  57 SE5       30.10F
$$



USA.gov is the U.S. government's official web portal to all federal, state and local government web resources and services.